TimeCDT,TemperatureF,Dew PointF,Humidity,Sea Level PressureIn,VisibilityMPH,Wind Direction,Wind SpeedMPH,Gust SpeedMPH,PrecipitationIn,Events,Conditions,WindDirDegrees,DateUTC
12:56 AM,38.8,38.8,100,30.07,-9999.0,Calm,Calm,-,N/A,,Clear,0,2012-10-10 05:56:00
1:56 AM,39.9,39.9,100,30.07,-9999.0,Calm,Calm,-,N/A,,Clear,0,2012-10-10 06:56:00
2:56 AM,43.0,43.0,100,30.08,-9999.0,Calm,Calm,-,N/A,,Mostly Cloudy,0,2012-10-10 07:56:00
3:56 AM,45.0,45.0,100,30.09,-9999.0,Calm,Calm,-,N/A,,Mostly Cloudy,0,2012-10-10 08:56:00
4:56 AM,52.0,50.0,93,30.09,-9999.0,SSW,5.8,-,0.00,,Mostly Cloudy,210,2012-10-10 09:56:00
5:56 AM,52.9,50.0,90,30.10,-9999.0,SW,6.9,-,N/A,,Mostly Cloudy,220,2012-10-10 10:56:00
6:56 AM,54.0,50.0,86,30.11,-9999.0,SSW,6.9,-,N/A,,Mostly Cloudy,210,2012-10-10 11:56:00
7:56 AM,54.9,50.0,84,30.13,-9999.0,SW,5.8,-,N/A,,Mostly Cloudy,220,2012-10-10 12:56:00
8:56 AM,55.9,50.0,80,30.15,-9999.0,West,10.4,-,N/A,,Overcast,260,2012-10-10 13:56:00
9:56 AM,54.9,50.0,84,30.17,-9999.0,West,10.4,-,N/A,,Overcast,260,2012-10-10 14:56:00
10:56 AM,54.9,50.0,84,30.17,-9999.0,West,10.4,-,N/A,,Overcast,280,2012-10-10 15:56:00
11:09 AM,55.4,50.0,82,30.16,-9999.0,West,9.2,-,N/A,,Overcast,260,2012-10-10 16:09:00
11:45 AM,55.4,50.0,82,30.16,-9999.0,WSW,6.9,-,N/A,,Overcast,240,2012-10-10 16:45:00
11:56 AM,55.9,50.0,80,30.18,-9999.0,West,8.1,-,N/A,,Overcast,270,2012-10-10 16:56:00
12:56 PM,57.9,50.0,75,30.18,-9999.0,West,9.2,-,N/A,,Mostly Cloudy,260,2012-10-10 17:56:00
1:56 PM,57.9,48.9,72,30.17,-9999.0,NW,11.5,-,N/A,,Overcast,310,2012-10-10 18:56:00
2:37 PM,57.2,46.4,67,30.15,-9999.0,WNW,10.4,-,N/A,,Mostly Cloudy,300,2012-10-10 19:37:00
2:56 PM,59.0,43.9,57,30.17,-9999.0,WNW,9.2,-,N/A,,Mostly Cloudy,290,2012-10-10 19:56:00
3:56 PM,61.0,38.8,44,30.18,-9999.0,NW,11.5,-,N/A,,Clear,310,2012-10-10 20:56:00
4:56 PM,59.0,36.9,44,30.19,-9999.0,NW,10.4,-,N/A,,Clear,320,2012-10-10 21:56:00
5:56 PM,54.9,37.9,53,30.21,-9999.0,NW,5.8,-,N/A,,Clear,310,2012-10-10 22:56:00
6:56 PM,46.9,37.9,71,30.24,-9999.0,NNW,4.6,-,N/A,,Clear,330,2012-10-10 23:56:00
7:56 PM,45.0,36.9,73,30.25,-9999.0,NNW,5.8,-,N/A,,Clear,330,2012-10-11 00:56:00
8:56 PM,38.8,36.0,89,30.27,-9999.0,Calm,Calm,-,N/A,,Clear,0,2012-10-11 01:56:00
9:56 PM,36.0,34.9,96,30.30,-9999.0,Calm,Calm,-,N/A,,Clear,0,2012-10-11 02:56:00
10:56 PM,36.0,36.0,100,30.31,-9999.0,Calm,Calm,-,N/A,,Clear,0,2012-10-11 03:56:00
11:56 PM,34.9,34.9,100,30.31,-9999.0,Calm,Calm,-,N/A,,Clear,0,2012-10-11 04:56:00